This is the latest recevied weather packets stored in our database for station/object VK2KGV-15. If no packets are shown the sender has not sent any weather packets the latest 10 day(s).
| Time | Temp. | Humidity | Pressure | Rain* | Wind** | Luminosity | Snow |
|---|---|---|---|---|---|---|---|
| 1787998593 | 8.89° C | 70% | 1026.9 hPa | 0 mm | - | - | - |
| 1787997386 | 8.89° C | 69% | 1026.7 hPa | 0 mm | - | - | - |
| 1787996784 | 8.89° C | 66% | 1026.5 hPa | 0 mm | - | - | - |
| 1787996180 | 9.44° C | 65% | 1026.2 hPa | 0 mm | - | - | - |
| 1787994974 | 10° C | 62% | 1026 hPa | 0 mm | - | - | - |
| 1787993777 | 10.56° C | 60% | 1025.8 hPa | 0 mm | - | - | - |
| 1787993165 | 11.11° C | 58% | 1025.6 hPa | 0 mm | - | - | - |
| 1787991355 | 13.33° C | 54% | 1025.3 hPa | 0 mm | - | - | - |
| 1787990149 | 14.44° C | 49% | 1025 hPa | 0 mm | - | - | - |
| 1787988340 | 16.67° C | 44% | 1024.5 hPa | 0 mm | - | - | - |
| 1787985324 | 18.89° C | 33% | 1023.8 hPa | 0 mm | - | - | - |
| 1787981706 | 20.56° C | 34% | 1023.6 hPa | 0 mm | - | - | - |
| 1787980499 | 21.11° C | 36% | 1023.6 hPa | 0 mm | - | - | - |
| 1787978690 | 22.22° C | 33% | 1023.5 hPa | 0 mm | - | - | - |
| 1787975675 | 21.67° C | 35% | 1023.9 hPa | 0 mm | - | - | - |
| 1787974468 | 22.22° C | 32% | 1024 hPa | 0 mm | - | - | - |
| 1787973262 | 21.67° C | 36% | 1024.1 hPa | 0 mm | - | - | - |
| 1787971453 | 21.11° C | 37% | 1024.5 hPa | 0 mm | - | - | - |
| 1787969643 | 20.56° C | 40% | 1025.1 hPa | 0 mm | - | - | - |
| 1787968440 | 21.11° C | 39% | 1025.3 hPa | 0 mm | - | - | - |
| 1787967231 | 20° C | 40% | 1025.6 hPa | 0 mm | - | - | - |
| 1787966025 | 20° C | 46% | 1025.9 hPa | 0 mm | - | - | - |
| 1787964216 | 19.44° C | 46% | 1026.2 hPa | 0 mm | - | - | - |
| 1787961803 | 18.89° C | 49% | 1026.3 hPa | 0 mm | - | - | - |
| 1787959994 | 17.78° C | 52% | 1026.4 hPa | 0 mm | - | - | - |
* Rain since midnight (hover to see other rain measurements)
** Current wind speed in m/s (hover to see current wind gust speed)